Location: ??????????
(54.8537°N, 38.8755°E)
Time: 02:06:54
(UTC+00:00)

Tiros 1 despin weight - Pass Details

Date: 18 September 2024
Orbit: 573 x 615 km, 48.2° (Epoch: 04 October)

Event Time Altitude Azimuth Distance (km) Brightness Sun altitude
Rises 02:36:17 0° 258° (WSW) 2,883 - -4.7°
Exits shadow 02:37:39 - 255° (WSW) 2,370 ? -4.5°
Reaches altitude 10° 02:38:43 10° 250° (WSW) 1,981 ? -4.3°
Maximum altitude 02:42:52 35° 185° (S) 997 ? -3.7°
Drops below altitude 10° 02:47:02 10° 119° (ESE) 1,982 ? -3.1°
Sets 02:49:28 0° 111° (ESE) 2,884 ? -2.8°
